[[{"header":{"parameterUnit":"m.s-1","parameterCategory":1,"la1":30.2991,"la2":30.254,"lo1":-89.0895,"lo2":-89.0444,"dy":0.0017,"dx":0.0017,"nx":28,"ny":28,"refTime":"2023-08-02T21:00:00:Z","depth":0,"parameterNumber":2,"parameterNumberName":"U-component_of_WINDS"},"data":[0,0,0,0,0,0,0,0,0,0,0,0,0,0,0,0,0,0,0,0,0,0,0,0,0,0,0,0,0,0,0,0,0,0,0,0,0,0,0,0,0,0,0,0,0,0,0,0,0,0,0,0,0,0,0,0,0,0,2.3491,2.3492,0,2.3558,2.3558,2.3559,2.3536,2.3534,2.3533,2.3531,2.3598,2.3601,2.3604,0,0,0,0,0,0,0,0,0,0,0,0,0,2.3339,2.3342,2.3491,2.3492,2.3493,2.3557,2.3558,2.3559,2.3536,2.3534,2.3532,2.3531,2.3596,2.36,2.3604,0,0,0,0,0,0,0,0,0,0,0,0,0,2.3405,2.3343,2.3491,2.3489,2.3489,2.3557,2.3558,2.3559,2.3536,2.3534,2.3532,2.353,2.3595,2.36,2.3604,2.3678,0,0,2.3619,2.3621,0,0,0,0,0,0,0,0,2.3402,2.3411,2.3488,2.3489,2.349,2.3536,2.3529,2.3599,2.3537,2.3518,2.3531,2.3529,2.3579,2.3585,2.3602,2.3681,2.3684,2.3619,2.3622,2.3624,2.3625,0,0,0,0,0,0,0,2.3397,2.3408,2.3517,2.3489,2.349,2.3483,2.349,2.3542,2.356,2.352,2.3518,2.3527,2.3579,2.3597,2.3603,2.3685,2.3619,2.3623,2.3626,2.3628,2.3823,2.3825,0,0,0,0,0,0,2.3393,2.3404,2.3515,2.3519,2.3439,2.3488,2.3495,2.3523,2.3559,2.3563,2.3528,2.3525,2.359,2.3598,2.3606,2.3691,2.3624,2.3629,2.3631,2.3821,2.3824,2.3826,0,0,0,0,0,0,2.339,2.3403,2.3512,2.3461,2.3475,2.3493,2.3524,2.3526,2.3545,2.3566,2.3569,2.3545,2.3589,2.3599,2.3659,2.3693,2.3631,2.3635,2.3818,2.3822,2.3825,2.3864,0,0,0,0,0,0,2.3385,2.3402,2.3431,2.3462,2.3478,2.3566,2.3526,2.3529,2.3553,2.3549,2.3582,2.3585,2.3588,2.3652,2.3664,2.3698,2.3639,2.3815,2.382,2.3824,2.386,2.3869,2.3876,0,0,0,0,0,2.338,2.344,2.3433,2.3446,2.3515,2.3568,2.3577,2.358,2.3556,2.3584,2.3597,2.3584,2.3688,2.3659,2.3672,2.3708,2.3813,2.3818,2.3824,2.3856,2.3867,2.3876,0,0,0,0,0,0,2.3412,2.3444,2.3436,2.3508,2.3536,2.3564,2.36,2.3592,2.3626,2.3621,2.3623,2.363,2.3691,2.3706,2.3673,2.3779,2.3747,2.3755,2.3767,2.3778,2.3785,2.378,2.3643,0,0,0,0,0,2.3427,2.3469,2.3495,2.3556,2.357,2.3583,2.3606,2.3606,2.3634,2.3646,2.3663,2.3691,2.3729,2.3754,2.3791,2.3862,2.3867,2.3894,2.3902,2.3908,2.3915,2.395,2.3961,2.3844,2.3844,2.3844,0,0,2.346,2.3482,2.3509,2.3562,2.3584,2.3625,2.3593,2.3639,2.3669,2.3652,2.371,2.3724,2.3754,2.3819,2.3849,2.3833,2.3948,2.3915,2.392,2.3923,2.3957,2.3968,2.3978,2.3847,2.3847,2.3846,0,0,2.3539,2.3562,2.3613,2.3635,2.3667,2.3675,2.3688,2.3717,2.3726,2.3784,2.3771,2.3807,2.3874,2.3895,2.3914,2.3999,2.3987,2.4011,2.4053,2.4088,2.4097,2.4105,2.4132,2.4143,2.4018,2.4018,2.4018,0,2.3575,2.3638,2.3641,2.3688,2.371,2.3697,2.3748,2.3769,2.3811,2.3826,2.3809,2.389,2.391,2.3978,2.3999,2.4016,2.4028,2.4007,2.4095,2.4104,2.4111,2.4137,2.4148,2.4021,2.402,2.402,2.402,0,2.3679,2.3723,2.3761,2.3802,2.3829,2.3878,2.3886,2.3913,2.391,2.3919,2.3976,2.3999,2.4039,2.4055,2.4053,2.4123,2.4112,2.4095,2.4062,2.4125,2.4149,2.416,2.4024,2.4023,2.4022,2.4022,0,0,2.3781,2.3821,2.3835,2.3852,2.3886,2.3919,2.3966,2.4005,2.4027,2.4057,2.4094,2.415,2.4134,2.4156,2.4156,2.4186,2.4248,2.4165,2.4166,2.4178,2.4323,2.4334,2.4346,2.4241,2.4243,2.4245,2.432,0,2.3861,2.3944,2.3947,2.4022,2.4061,2.4048,2.4088,2.4112,2.4122,2.4155,2.4165,2.4203,2.4181,2.4193,2.4223,2.4235,2.4277,2.423,2.4274,2.4276,2.4265,2.4359,2.4372,2.4442,2.433,2.4331,2.4333,0,2.3966,2.3998,2.4077,2.4103,2.4119,2.4156,2.419,2.4223,2.4249,2.4253,2.4277,2.4272,2.4317,2.4284,2.4345,2.4313,2.4331,2.4339,2.4342,2.4344,2.4307,2.4362,2.4464,2.4474,2.4348,2.4347,2.4346,0,2.4029,2.4092,2.4147,2.4162,2.4194,2.4219,2.4234,2.4258,2.428,2.431,2.4324,2.4359,2.4378,2.4404,2.4407,2.4383,2.4468,2.4436,2.4471,2.4471,2.4488,2.4487,2.4592,2.4504,2.4504,2.4503,2.4503,0,2.4117,2.4165,2.4175,2.4208,2.4261,2.4263,2.4314,2.4326,2.4348,2.4382,2.4373,2.4405,2.4408,2.4441,2.4443,2.4492,2.4501,2.4505,2.4504,2.4504,2.4504,2.4515,2.4509,2.4506,2.4506,2.4505,2.4505,0,2.4196,2.4205,2.4263,2.4288,2.4295,2.4332,2.4353,2.4384,2.4392,2.4435,2.4445,2.4457,2.4495,2.4501,2.4545,2.4547,2.4605,2.4601,2.4596,2.4594,2.4628,2.4624,2.4743,2.4758,2.4662,2.4663,2.4664,0,2.425,2.4287,2.4316,2.4338,2.4353,2.439,2.4412,2.4415,2.4438,2.4469,2.4496,2.4532,2.4561,2.4621,2.4633,2.4666,2.4662,2.4701,2.4666,2.4664,2.4659,2.4656,2.4658,2.4707,2.4708,2.4709,2.471,0,2.4346,2.4347,2.4381,2.4414,2.4441,2.4468,2.4493,2.4512,2.4517,2.4544,2.4582,2.4605,2.4649,2.4684,2.4717,2.473,2.472,2.4721,2.473,2.4729,2.4724,2.4724,2.4611,2.4717,2.4717,2.4716,2.4716,2.4715,2.4412,2.4443,2.4467,2.4503,2.4522,2.4546,2.4575,2.4586,2.4618,2.4655,2.4654,2.4695,2.4718,2.476,2.4775,2.4806,2.4793,2.4808,2.4811,2.4814,2.4816,2.472,2.4813,2.4812,2.4812,2.4812,2.4812,0,2.4504,2.4519,2.4552,2.4587,2.4615,2.4604,2.4631,2.4655,2.4691,2.4713,2.4742,2.4784,2.4818,2.4832,2.4865,2.4886,2.4882,2.4895,2.4892,2.4895,2.4827,2.4814,2.4897,2.4897,2.4897,2.4897,2.4897,2.4897,2.4556,2.4606,2.461,2.4669,2.4683,2.4723,2.4739,2.476,2.4777,2.4825,2.4853,2.4862,2.488,2.4914,2.4943,2.4946,2.4958,2.4971,2.4972,2.4909,2.49,2.4891,2.4879,2.4975,2.4975,2.5037,2.5038,2.5038]},{"header":{"parameterUnit":"m.s-1","parameterCategory":1,"la1":30.2991,"la2":30.254,"lo1":-89.0895,"lo2":-89.0444,"dy":0.0017,"dx":0.0017,"nx":28,"ny":28,"refTime":"2023-08-02T21:00:00:Z","depth":0,"parameterNumber":3,"parameterNumberName":"V-component_of_WINDS"},"data":[0,0,0,0,0,0,0,0,0,0,0,0,0,0,0,0,0,0,0,0,0,0,0,0,0,0,0,0,0,0,0,0,0,0,0,0,0,0,0,0,0,0,0,0,0,0,0,0,0,0,0,0,0,0,0,0,0,0,5.4497,5.4497,0,5.45,5.45,5.45,5.442,5.4418,5.4416,5.4414,5.4416,5.4418,5.442,0,0,0,0,0,0,0,0,0,0,0,0,0,5.442,5.4422,5.4497,5.4497,5.4497,5.45,5.45,5.45,5.4421,5.4418,5.4415,5.4413,5.4416,5.4418,5.442,0,0,0,0,0,0,0,0,0,0,0,0,0,5.4441,5.4422,5.4497,5.4458,5.4454,5.45,5.45,5.45,5.4421,5.4418,5.4415,5.4412,5.4415,5.4418,5.4421,5.4504,0,0,5.443,5.4432,0,0,0,0,0,0,0,0,5.444,5.4444,5.4463,5.4461,5.4457,5.4456,5.4474,5.4502,5.4422,5.4434,5.4414,5.441,5.4432,5.4434,5.4441,5.4504,5.4504,5.4431,5.4432,5.4434,5.4435,0,0,0,0,0,0,0,5.4439,5.4444,5.4498,5.4464,5.446,5.4439,5.4439,5.4479,5.4451,5.4432,5.4427,5.4428,5.443,5.4438,5.4441,5.4504,5.443,5.4433,5.4435,5.4436,5.4633,5.4637,0,0,0,0,0,0,5.4443,5.4443,5.4498,5.4498,5.444,5.4443,5.4443,5.446,5.445,5.4446,5.4431,5.4424,5.4435,5.4437,5.444,5.4535,5.4434,5.4437,5.4438,5.463,5.4634,5.4638,0,0,0,0,0,0,5.4442,5.4449,5.4498,5.4469,5.4474,5.4448,5.4468,5.4462,5.447,5.4449,5.4444,5.4445,5.4432,5.4436,5.4488,5.4534,5.4438,5.4441,5.4626,5.4631,5.4636,5.4727,0,0,0,0,0,0,5.444,5.4449,5.4481,5.447,5.4476,5.4547,5.4471,5.4464,5.4476,5.4467,5.4461,5.4457,5.443,5.4484,5.4491,5.4537,5.4443,5.4622,5.4628,5.4634,5.472,5.4735,5.4747,0,0,0,0,0,5.4437,5.4507,5.4483,5.449,5.4515,5.455,5.4552,5.4521,5.448,5.4511,5.4497,5.4457,5.4529,5.449,5.4498,5.4545,5.4619,5.4626,5.4634,5.4714,5.4732,5.4747,0,0,0,0,0,0,5.4523,5.4505,5.4478,5.4546,5.455,5.4536,5.4574,5.4541,5.4557,5.4548,5.4508,5.4507,5.4565,5.456,5.4518,5.4624,5.4566,5.4576,5.4624,5.4641,5.4655,5.4654,5.4446,0,0,0,0,0,5.455,5.458,5.4562,5.4624,5.4627,5.4601,5.4615,5.459,5.4592,5.4593,5.4583,5.4587,5.4609,5.4625,5.4646,5.4719,5.4716,5.4755,5.4769,5.478,5.4789,5.4825,5.4842,5.4663,5.4663,5.4663,0,0,5.4606,5.4599,5.4621,5.4641,5.4641,5.4672,5.4603,5.4639,5.4661,5.4598,5.4646,5.464,5.4641,5.4703,5.4731,5.4701,5.4837,5.479,5.4799,5.4801,5.4835,5.4851,5.4867,5.4668,5.4667,5.4666,0,0,5.4722,5.4722,5.4772,5.4773,5.4774,5.4756,5.4768,5.4759,5.4751,5.4799,5.4752,5.4778,5.4819,5.4821,5.4828,5.4944,5.4907,5.4952,5.5023,5.5059,5.5073,5.5085,5.5125,5.514,5.4961,5.4961,5.4961,0,5.4791,5.4836,5.4802,5.484,5.485,5.4795,5.4844,5.4847,5.4855,5.4862,5.483,5.4879,5.4876,5.4937,5.4965,5.4973,5.4984,5.4952,5.5074,5.5086,5.5097,5.5134,5.5149,5.4966,5.4965,5.4965,5.4964,0,5.492,5.4952,5.4992,5.5,5.5014,5.5058,5.5029,5.5048,5.5022,5.5007,5.5055,5.505,5.5067,5.508,5.5055,5.5138,5.5119,5.5081,5.5022,5.512,5.5154,5.5168,5.4974,5.4972,5.497,5.4969,0,0,5.509,5.5078,5.5093,5.5095,5.5091,5.5115,5.5156,5.5172,5.5188,5.5195,5.5227,5.5263,5.5227,5.5235,5.521,5.5242,5.5332,5.5199,5.5199,5.5222,5.542,5.5447,5.5464,5.5308,5.531,5.5312,5.5419,0,5.5201,5.527,5.524,5.5312,5.534,5.5288,5.5323,5.5324,5.5312,5.5333,5.5318,5.5343,5.5296,5.5299,5.5329,5.5315,5.537,5.5307,5.5336,5.5337,5.5335,5.5482,5.5511,5.5612,5.5432,5.5434,5.5436,0,5.534,5.5352,5.5427,5.5416,5.5427,5.5459,5.5471,5.5493,5.5493,5.5481,5.5489,5.5456,5.5495,5.5438,5.5489,5.5447,5.5457,5.5452,5.5455,5.5455,5.5391,5.5484,5.5643,5.5658,5.5457,5.5455,5.5454,0,5.5454,5.5489,5.5537,5.5541,5.5531,5.5554,5.5551,5.5548,5.5559,5.557,5.5577,5.5592,5.56,5.5612,5.5584,5.5546,5.5639,5.558,5.5629,5.563,5.5649,5.5648,5.5811,5.566,5.566,5.566,5.5659,0,5.558,5.5627,5.5588,5.5618,5.5668,5.5633,5.5684,5.5675,5.5672,5.5699,5.5656,5.5681,5.5643,5.5665,5.5644,5.5689,5.5693,5.5684,5.5677,5.5686,5.5687,5.5691,5.5683,5.5663,5.5663,5.5662,5.5661,0,5.5715,5.5691,5.574,5.5726,5.5723,5.5761,5.5749,5.5775,5.5759,5.5793,5.5799,5.5774,5.5797,5.5771,5.5792,5.5778,5.5838,5.5822,5.5838,5.5832,5.5882,5.5877,5.6051,5.6071,5.591,5.5911,5.5912,0,5.5796,5.5831,5.582,5.5835,5.5834,5.5858,5.5869,5.5835,5.5848,5.585,5.5876,5.5896,5.5909,5.5949,5.5932,5.5948,5.5931,5.5991,5.5933,5.5941,5.5929,5.5927,5.5929,5.6002,5.6004,5.6006,5.6007,0,5.5942,5.5928,5.5945,5.5959,5.5973,5.5982,5.5987,5.6002,5.5966,5.5983,5.6006,5.6017,5.6038,5.6057,5.6069,5.6065,5.603,5.6026,5.6037,5.6046,5.6053,5.6048,5.5868,5.6021,5.602,5.6019,5.6018,5.6017,5.6051,5.6078,5.6074,5.6095,5.6095,5.6101,5.6125,5.6112,5.613,5.6144,5.6123,5.6152,5.6149,5.616,5.6161,5.6182,5.6156,5.6174,5.6178,5.6182,5.6188,5.6051,5.6184,5.6184,5.6183,5.6183,5.6183,0,5.6192,5.6187,5.6206,5.6214,5.623,5.6197,5.6201,5.6216,5.6241,5.6242,5.6256,5.6282,5.63,5.6285,5.63,5.632,5.6304,5.6325,5.6322,5.6321,5.6212,5.6199,5.6337,5.6337,5.6337,5.6337,5.6337,5.6337,5.6267,5.6311,5.6297,5.634,5.6334,5.6361,5.6366,5.6371,5.6371,5.6402,5.6416,5.6407,5.6401,5.6415,5.643,5.6425,5.6432,5.6458,5.6447,5.6345,5.6329,5.6315,5.6302,5.646,5.646,5.6554,5.6555,5.6556]}]]